Weather in Lazarev

Russia / Khabarovsk Krai     52°12′37″N   141°30′32″E
temp.,
°C
wind,
m/s
gust,
m/s
humid.,
%
clouds,
%
prec.,
mm/h
press.,
hPa
HPBL,
m
25 february, thu
thu2501:00−15nw71495100 1.1 1016631
04:00−15nnw81494100 1.9 1016575
07:00−15nnw81494100 1.0 1018585
10:00−15n81387100 1.4 1019551
13:00−14n81186100 0.1 1020515
16:00−14n71085100 0.1 1019506
19:00−16n5990100 0.0 1021201
22:00−17n5891100 0.0 1020194
26 february, fri
fri2601:00−18n4691100 0.0 1021172
04:00−18n4592100 0.0 1021115
07:00−19n4592100 0.0 1022109
10:00−18nnw4789100 0.0 1022322
13:00−15n5682100 0.0 1023411
16:00−15n5784100 0.0 1023366
19:00−17nne4790100 0.0 1025142
22:00−19n449199 0.0 102755
27 february, sat
sat2701:00−22nnw239660 0.0 102721
04:00−23wnw129532 0.0 102820
07:00−24w118816 0.0 103020
10:00−20s23829 0.0 102973
13:00−16s44860 0.0 1028173
16:00−14sse56890 0.0 1026136
19:00−15ssw679117 0.0 102670
22:00−16s569155 0.0 102466
28 february, sun
sun2801:00−14s4694100 0.0 1021125
04:00−10s51094100 0.1 1016276
07:00−7ssw51195100 1.2 1012487
10:00−6sw5885100 1.9 1010720
13:00−6wsw4677100 0.0 1009672
16:00−7nw458493 0.1 1009219
19:00−11nnw338796 0.5 101140
22:00−17n238995 0.5 101321
1 march, mon
mon101:00−20wnw129186 0.0 101320
04:00−20w6118067 0.0 1015175
07:00−18wnw7158066 0.0 1015530
10:00−15wnw9127882 0.0 1016859
13:00−14wnw91279100 0.1 10171022
16:00−15wnw91271100 0.1 1019803
19:00−17wnw4777100 0.0 1021110
22:00−20wsw238094 0.0 102320